Home > Weather > Port Coquitlam > Past weeks

Flag for Canada Past Weather in Port Coquitlam, British Columbia, Canada — Yesterday and Last 2 Weeks

Now
67 °F

Mild.


Feels Like: 67 °F
Forecast: 57 / 67 °F
Wind: 2 mph from West

Location: P. Meadows Coastal Station

Current Time: Aug 28, 2016 at 3:46:48 PM

Latest Report: Aug 28, 2016 at 3:00 PM


Visibility: N/A

Pressure: 30.11 "Hg

Humidity: 59%

Dew Point: 53 °F

Location of Port CoquitlamLocation

Past Weather in Port Coquitlam — Graph

°F

Port Coquitlam Temperature Yesterday

Maximum temperature yesterday: 74 °F (at 5:00 PM)
Minimum temperature yesterday: 60 °F (at 5:00 AM)
Average temperature yesterday: 66 °F

High & Low Weather Summary for the Past Weeks

 TemperatureHumidityPressure
High93 °F (Aug 19, 4:00 PM)98% (Aug 24, 7:00 AM)30.27 "Hg (Aug 24, 7:00 AM)
Low51 °F (Aug 23, 3:00 AM)21% (Aug 19, 5:00 PM)29.73 "Hg (Aug 27, 3:00 AM)
Average70 °F64%30.01 "Hg
* Reported Aug 13 2:00 PM — Aug 28 2:00 PM, Port Coquitlam, Weather by CustomWeather, © 2016

Note: Actual official high and low records may vary slightly from our data, if they occured in-between our weather recording intervals... More about our weather records

Advertising

Port Coquitlam Weather History for the Previous 24 Hours

Scroll right to see more
 ConditionsComfort  
Time TempWeatherWind HumidityBarometerVisibility
2:00 PM
Sun, Aug 28
69 °FMild.2 mph55%30.09 "HgN/A
1:00 PM68 °FMild.3 mph60%30.09 "HgN/A
12:00 PM66 °FMild.3 mph65%30.09 "HgN/A
11:00 AM64 °FMild.1 mph66%30.09 "HgN/A
10:00 AM62 °FMild.1 mph69%30.09 "HgN/A
9:00 AM62 °FCool.1 mph70%30.09 "HgN/A
8:00 AM61 °FCool.1 mph71%30.09 "HgN/A
7:00 AM60 °FCool.3 mph73%30.07 "HgN/A
6:00 AM60 °FCool.3 mph74%30.06 "HgN/A
5:00 AM60 °FCool.3 mph75%30.05 "HgN/A
4:00 AM60 °FCool.5 mph74%30.03 "HgN/A
3:00 AM59 °FCool.6 mph71%30.02 "HgN/A
2:00 AM60 °FCool.5 mph73%30.00 "HgN/A
1:00 AM62 °FCool.5 mph69%29.98 "HgN/A
12:00 AM62 °FCool.6 mph66%29.97 "HgN/A
11:00 PM
Sat, Aug 27
63 °FMild.7 mph64%29.95 "HgN/A
10:00 PM64 °FMild.6 mph63%29.93 "HgN/A
9:00 PM65 °FMild.7 mph60%29.91 "HgN/A
8:00 PM67 °FMild.2 mph60%29.88 "HgN/A
7:00 PM68 °FMild.3 mph59%29.87 "HgN/A
6:00 PM71 °FMild.6 mph53%29.86 "HgN/A
5:00 PM74 °FMild.6 mph52%29.85 "HgN/A
4:00 PM73 °FMild.8 mph56%29.84 "HgN/A
3:00 PM71 °FMild.6 mph56%29.83 "HgN/A
Weather by CustomWeather, © 2016

See weather overviewHow to use our weather pages